Regional Weather Roundup
Issued by NWS Cleveland, OH

Home | Current Version | Previous Version | Graphics & Text | Print | Product List | Glossary On
Versions: 1 2 3 4 5 6 7 8 9 10 11 12 13 14 15 16 17 18 19 20 21 22 23 24 25 26 27 28 29 30 31 32 33 34 35 36 37 38 39 40 41 42 43 44 45 46 47 48 49 50
000
ASUS41 KCLE 030110
RWRCLE
OHIO REGIONAL WEATHER ROUNDUP
NATIONAL WEATHER SERVICE CLEVELAND, OH
800 PM EST MON MAR 02 2015

NOTE: "FAIR" INDICATES FEW OR NO CLOUDS BELOW 12,000 FEET WITH NO
SIGNIFICANT WEATHER AND/OR OBSTRUCTIONS TO VISIBILITY.

OHZ001>008-015>018-024>027-034-035-043-044-030200-
   NORTHWEST OHIO

CITY           SKY/WX    TMP DP  RH WIND       PRES   REMARKS
DEFIANCE       MOCLDY    22  14  71 S5        30.42F WCI  16
FINDLAY        CLOUDY    16  10  77 S6        30.42F WCI   7
TOLEDO EXPRESS MOCLDY    20  12  71 S3        30.42S
TOLEDO EXEC    MOCLDY    15   9  76 S5        30.43F WCI   8
LIMA           PTCLDY    20  10  65 S6        30.41F WCI  12
$$

OHZ009>014-019>023-028>033-038-089-030200-
   NORTHEAST OHIO

CITY           SKY/WX    TMP DP  RH WIND       PRES   REMARKS
CLE-HOPKINS    MOCLDY    22  10  60 SW5       30.46F WCI  16
CLE-LAKEFRONT  MOCLDY    23  11  60 SW5       30.44F WCI  17
CUY CO. ARPT   PTCLDY    18  12  79 S7        30.43F WCI   8
LORAIN-ELYRIA  MOCLDY    16   8  71 SW5       30.44S WCI   9
ASHTABULA      PTCLDY    17   7  64 CALM      30.43S
AKRON-CANTON   PTCLDY    17   7  64 W3        30.41F
WOOSTER        MOCLDY     7   1  76 CALM      30.42F
MANSFIELD      MOCLDY    20  11  68 S3        30.41F
YOUNGSTOWN     PTCLDY    21   6  52 N3        30.41R
$$

OHZ042-051>053-060>062-070>072-077>081-030200-
  SOUTHWEST OHIO

CITY           SKY/WX    TMP DP  RH WIND       PRES   REMARKS
CINC-COVINGTON PTCLDY    31  15  52 E7        30.42S WCI  24
CINC-LUNKEN    PTCLDY    28  16  60 NE5       30.46S WCI  23
HAMILTON       PTCLDY    26  15  63 NE5       30.45F WCI  20
DAYTON         MOCLDY    21  12  68 CALM      30.43F
WRIGHT-PAT AFB MOCLDY    23  13  64 E3        30.43F
DAYTON GENERAL PTCLDY    25  15  66 SE6       30.42S WCI  18
WILMINGTON     PTCLDY    19  11  70 E3        30.43S
$$

OHZ036-037-039>041-045>050-054>059-063>069-073>076-082>088-030200-
  CENTRAL AND SOUTHEAST OHIO

CITY           SKY/WX    TMP DP  RH WIND       PRES   REMARKS
COLUMBUS       PTCLDY    25  10  53 VRB3      30.44S
OSU AIRPORT    PTCLDY    23  10  57 N3        30.43S
BOLTON FIELD   PTCLDY   N/A N/A N/A W3        30.44S
RICKENBACK AFB PTCLDY    22  14  72 CALM      30.44S
NEWARK         CLEAR     19  11  70 SW3       30.43S
MARION         MOCLDY    16  10  77 CALM      30.43S
LANCASTER      PTCLDY    20  14  77 CALM      30.44S
ZANESVILLE     CLEAR     25  11  55 NW3       30.43S
NEW PHILLY     PTCLDY    20   9  62 CALM      30.44F
$$



USA.gov is the U.S. government's official web portal to all federal, state and local government web resources and services.